Zurück zum Katalog

CZ-4B SEP MOTOR COVER

AktivPO
NORAD 44891·DEBRIS·🇨🇳 China
Dieser Satellitenname wurde noch nicht durch offizielle Quellen bestätigt.

Gestartet Dec 20, 2019 von Taiyuan Satellite Launch Center

Loading…

Nächste Überflüge (nächste 24 Stunden)

TLE

AktuellSource: Space-Track

Epoche: Sep 14, 2026, 14:19 UTC

1 44891U 19093N   26257.59701416  .00024223  00000-0  62633-3 0  9999
2 44891  98.0657  72.9823 0006169  86.6990 273.4959 15.39086863368515

Verfolge CZ-4B SEP MOTOR COVER in Echtzeit mit AllMySat

Download on the App Store